| time (UTC) | temp F | wind direction | speed MPH | gust MPH | rain 1hr in | rain 24hr in | rain mn in | humidity % | barometer mb |
| 20260906174225 | 90 | 139 | 5.0 | 10.0 | 0.00 | 0.09 | 0.09 | 71 | 1016.2 |
| 20260906173735 | 90 | 144 | 5.0 | 14.0 | 0.00 | 0.09 | 0.09 | 67 | 1016.2 |
| 20260906173247 | 90 | 148 | 8.0 | 14.0 | 0.00 | 0.09 | 0.09 | 69 | 1016.3 |
| 20260906173033 | 89 | 176 | 9.0 | 14.0 | 0.00 | 0.09 | 0.09 | 69 | 1013.4 |
| 20260906172728 | 90 | 164 | 7.0 | 11.0 | 0.00 | 0.09 | 0.09 | 70 | 1016.3 |
| 20260906172239 | 89 | 147 | 8.0 | 15.0 | 0.00 | 0.09 | 0.09 | 72 | 1016.4 |
| 20260906171722 | 89 | 169 | 9.0 | 15.0 | 0.00 | 0.09 | 0.09 | 71 | 1016.5 |
| 20260906171535 | 88 | 169 | 9.0 | 15.0 | 0.00 | 0.09 | 0.09 | 71 | 1013.7 |
| 20260906171250 | 89 | 155 | 8.0 | 12.0 | 0.00 | 0.09 | 0.09 | 71 | 1016.7 |
| 20260906170730 | 88 | 195 | 7.0 | 11.0 | 0.00 | 0.09 | 0.09 | 73 | 1016.8 |
| 20260906170242 | 87 | 194 | 5.0 | 10.0 | 0.00 | 0.09 | 0.09 | 74 | 1016.6 |
| 20260906170106 | 87 | 163 | 5.0 | 10.0 | 0.00 | 0.09 | 0.09 | 74 | 1013.7 |
| 20260906165751 | 87 | 168 | 7.0 | 13.0 | 0.00 | 0.09 | 0.09 | 75 | 1016.7 |
| 20260906165243 | 86 | 138 | 8.0 | 13.0 | 0.00 | 0.09 | 0.09 | 76 | 1016.7 |
| 20260906164726 | 85 | 158 | 8.0 | 12.0 | 0.00 | 0.09 | 0.09 | 78 | 1016.9 |
| 20260906164528 | 85 | 160 | 7.0 | 13.0 | 0.00 | 0.09 | 0.09 | 80 | 1014.0 |
| 20260906164255 | 84 | 194 | 6.0 | 10.0 | 0.00 | 0.09 | 0.09 | 81 | 1017.0 |
| 20260906163742 | 84 | 138 | 7.0 | 11.0 | 0.00 | 0.09 | 0.09 | 80 | 1016.9 |
| 20260906163233 | 83 | 147 | 6.0 | 10.0 | 0.00 | 0.09 | 0.09 | 83 | 1017.1 |
| 20260906163047 | 83 | 157 | 6.0 | 10.0 | 0.00 | 0.09 | 0.09 | 83 | 1014.2 |
| 20260906162746 | 83 | 134 | 7.0 | 10.0 | 0.00 | 0.09 | 0.09 | 83 | 1017.2 |
| 20260906162228 | 82 | 148 | 3.0 | 7.0 | 0.00 | 0.09 | 0.09 | 86 | 1017.0 |
| 20260906161741 | 82 | 164 | 5.0 | 7.0 | 0.00 | 0.09 | 0.09 | 86 | 1017.2 |
| 20260906161541 | 82 | 159 | 4.0 | 7.0 | 0.00 | 0.09 | 0.09 | 86 | 1014.4 |
| 20260906161226 | 82 | 158 | 4.0 | 6.0 | 0.00 | 0.09 | 0.09 | 87 | 1017.2 |
| 20260906160737 | 82 | 159 | 3.0 | 5.0 | 0.00 | 0.09 | 0.09 | 87 | 1017.2 |
| 20260906160246 | 82 | 158 | 2.0 | 3.0 | 0.00 | 0.09 | 0.09 | 86 | 1017.3 |
| 20260906160029 | 81 | 158 | 2.0 | 3.0 | 0.00 | 0.09 | 0.09 | 86 | 1014.4 |
| 20260906155738 | 82 | 288 | 1.0 | 2.0 | 0.00 | 0.09 | 0.09 | 86 | 1017.3 |
| 20260906155309 | 82 | 288 | 0.0 | 2.0 | 0.00 | 0.09 | 0.09 | 86 | 1017.3 |
| 20260906154730 | 81 | 288 | 0.0 | 4.0 | 0.05 | 0.09 | 0.09 | 86 | 1017.4 |
| 20260906154505 | 81 | 288 | 1.0 | 4.0 | 0.09 | 0.09 | 0.09 | 86 | 1014.4 |
| 20260906154243 | 81 | 288 | 2.0 | 9.0 | 0.09 | 0.09 | 0.09 | 86 | 1017.5 |
| 20260906153724 | 81 | 288 | 2.0 | 9.0 | 0.09 | 0.09 | 0.09 | 85 | 1017.5 |
| 20260906153236 | 81 | 254 | 5.0 | 11.0 | 0.09 | 0.09 | 0.09 | 85 | 1017.6 |
| 20260906153006 | 81 | 284 | 1.0 | 12.0 | 0.09 | 0.09 | 0.09 | 85 | 1014.5 |
| 20260906152742 | 81 | 284 | 5.0 | 12.0 | 0.09 | 0.09 | 0.09 | 85 | 1017.5 |
| 20260906152223 | 81 | 238 | 5.0 | 10.0 | 0.09 | 0.09 | 0.09 | 84 | 1017.4 |
| 20260906151734 | 82 | 144 | 7.0 | 10.0 | 0.09 | 0.09 | 0.09 | 85 | 1016.8 |
| 20260906151505 | 81 | 152 | 6.0 | 10.0 | 0.09 | 0.09 | 0.09 | 85 | 1013.9 |
| 20260906151248 | 82 | 132 | 6.0 | 9.0 | 0.09 | 0.09 | 0.09 | 85 | 1016.8 |
| 20260906150730 | 82 | 149 | 4.0 | 7.0 | 0.09 | 0.09 | 0.09 | 85 | 1016.8 |
| 20260906150242 | 82 | 135 | 4.0 | 10.0 | 0.09 | 0.09 | 0.09 | 85 | 1016.7 |
| 20260906150055 | 82 | 102 | 4.0 | 11.0 | 0.09 | 0.09 | 0.09 | 84 | 1013.8 |
| 20260906145725 | 82 | 126 | 7.0 | 11.0 | 0.09 | 0.09 | 0.09 | 84 | 1016.7 |
| 20260906145235 | 82 | 104 | 8.0 | 11.0 | 0.09 | 0.09 | 0.09 | 84 | 1016.7 |
| 20260906144743 | 82 | 139 | 6.0 | 12.0 | 0.03 | 0.03 | 0.03 | 83 | 1016.7 |
| 20260906144559 | 82 | 144 | 7.0 | 12.0 | 0.01 | 0.01 | 0.02 | 82 | 1013.8 |
| 20260906144226 | 82 | 140 | 8.0 | 12.0 | 0.00 | 0.00 | 0.00 | 81 | 1016.6 |
| 20260906143735 | 82 | 109 | 9.0 | 14.0 | 0.00 | 0.00 | 0.00 | 82 | 1016.6 |
| 20260906143308 | 82 | 118 | 10.0 | 14.0 | 0.00 | 0.00 | 0.00 | 81 | 1016.6 |
| 20260906143037 | 81 | 138 | 10.0 | 16.0 | 0.00 | 0.00 | 0.00 | 82 | 1013.7 |
| 20260906142729 | 82 | 141 | 9.0 | 16.0 | 0.00 | 0.00 | 0.00 | 82 | 1016.7 |
| 20260906142300 | 82 | 121 | 11.0 | 16.0 | 0.00 | 0.00 | 0.00 | 82 | 1016.8 |
| 20260906141745 | 82 | 119 | 9.0 | 13.0 | 0.00 | 0.00 | 0.00 | 83 | 1016.8 |
| 20260906141518 | 81 | 129 | 9.0 | 13.0 | 0.00 | 0.00 | 0.00 | 82 | 1013.9 |
| 20260906141230 | 81 | 136 | 9.0 | 13.0 | 0.00 | 0.00 | 0.00 | 82 | 1016.8 |
| 20260906140740 | 81 | 113 | 9.0 | 12.0 | 0.00 | 0.00 | 0.00 | 83 | 1016.9 |
| 20260906140250 | 81 | 132 | 8.0 | 13.0 | 0.00 | 0.00 | 0.00 | 83 | 1016.9 |
| 20260906140031 | 81 | 134 | 8.0 | 13.0 | 0.00 | 0.00 | 0.00 | 83 | 1014.0 |
| 20260906135732 | 81 | 129 | 9.0 | 13.0 | 0.00 | 0.00 | 0.00 | 83 | 1016.8 |
| 20260906135306 | 81 | 174 | 6.0 | 14.0 | 0.00 | 0.00 | 0.00 | 84 | 1016.9 |
| 20260906134726 | 81 | 134 | 9.0 | 17.0 | 0.00 | 0.00 | 0.00 | 83 | 1016.8 |
| 20260906134600 | 80 | 114 | 8.0 | 17.0 | 0.00 | 0.00 | 0.00 | 83 | 1013.9 |
| 20260906134501 | 80 | 133 | 8.0 | 17.0 | 0.00 | 0.00 | 0.00 | 83 | 1013.9 |
| 20260906134240 | 81 | 138 | 10.0 | 17.0 | 0.00 | 0.00 | 0.00 | 84 | 1016.8 |
| 20260906133807 | 81 | 131 | 10.0 | 18.0 | 0.00 | 0.00 | 0.00 | 84 | 1016.8 |
| 20260906133232 | 80 | 128 | 11.0 | 17.0 | 0.00 | 0.00 | 0.00 | 84 | 1016.9 |
| 20260906133049 | 80 | 133 | 11.0 | 20.0 | 0.00 | 0.00 | 0.00 | 85 | 1014.0 |
| 20260906132742 | 80 | 134 | 11.0 | 20.0 | 0.00 | 0.00 | 0.00 | 86 | 1016.8 |
| 20260906132232 | 80 | 124 | 12.0 | 20.0 | 0.00 | 0.00 | 0.00 | 86 | 1016.7 |
| 20260906131804 | 79 | 117 | 10.0 | 16.0 | 0.00 | 0.00 | 0.00 | 87 | 1016.8 |
| 20260906131554 | 78 | 130 | 11.0 | 17.0 | 0.00 | 0.00 | 0.00 | 87 | 1013.9 |
| 20260906131226 | 79 | 132 | 10.0 | 17.0 | 0.00 | 0.00 | 0.00 | 87 | 1016.7 |
| 20260906130733 | 78 | 117 | 10.0 | 14.0 | 0.00 | 0.00 | 0.00 | 88 | 1016.7 |
| 20260906130307 | 78 | 117 | 9.0 | 13.0 | 0.00 | 0.00 | 0.00 | 88 | 1016.8 |
| 20260906130035 | 77 | 113 | 9.0 | 13.0 | 0.00 | 0.00 | 0.00 | 88 | 1014.0 |
| 20260906125732 | 78 | 113 | 9.0 | 14.0 | 0.00 | 0.00 | 0.00 | 88 | 1016.7 |
| 20260906125245 | 78 | 101 | 11.0 | 14.0 | 0.00 | 0.00 | 0.00 | 88 | 1016.6 |
| 20260906124735 | 78 | 113 | 9.0 | 14.0 | 0.00 | 0.00 | 0.00 | 88 | 1016.5 |
| 20260906124518 | 77 | 142 | 10.0 | 14.0 | 0.00 | 0.00 | 0.00 | 88 | 1013.6 |
| 20260906124247 | 77 | 108 | 9.0 | 14.0 | 0.00 | 0.00 | 0.00 | 88 | 1016.5 |
| 20260906123738 | 77 | 109 | 9.0 | 13.0 | 0.00 | 0.00 | 0.00 | 88 | 1016.4 |
| 20260906123246 | 77 | 84 | 9.0 | 13.0 | 0.00 | 0.00 | 0.00 | 88 | 1016.4 |
| 20260906123100 | 77 | 111 | 8.0 | 12.0 | 0.00 | 0.00 | 0.00 | 88 | 1013.5 |
| 20260906123010 | 77 | 113 | 8.0 | 12.0 | 0.00 | 0.00 | 0.00 | 88 | 1013.4 |
| 20260906122728 | 77 | 101 | 9.0 | 12.0 | 0.00 | 0.00 | 0.00 | 88 | 1016.4 |
| 20260906122239 | 77 | 118 | 7.0 | 12.0 | 0.00 | 0.00 | 0.00 | 88 | 1016.2 |
| 20260906121722 | 77 | 142 | 7.0 | 12.0 | 0.00 | 0.00 | 0.00 | 88 | 1016.1 |
| 20260906121507 | 76 | 123 | 7.0 | 9.0 | 0.00 | 0.00 | 0.00 | 88 | 1013.2 |
| 20260906121255 | 77 | 120 | 7.0 | 9.0 | 0.00 | 0.00 | 0.00 | 88 | 1016.1 |
| 20260906120742 | 77 | 123 | 5.0 | 9.0 | 0.00 | 0.00 | 0.00 | 88 | 1016.1 |
| 20260906120225 | 77 | 106 | 5.0 | 9.0 | 0.00 | 0.00 | 0.00 | 88 | 1016.1 |
| 20260906120020 | 76 | 126 | 4.0 | 9.0 | 0.00 | 0.00 | 0.00 | 88 | 1013.2 |
| 20260906115732 | 77 | 101 | 4.0 | 9.0 | 0.00 | 0.00 | 0.00 | 88 | 1016.0 |
| 20260906115306 | 77 | 138 | 4.0 | 9.0 | 0.00 | 0.00 | 0.00 | 88 | 1015.8 |
| 20260906114725 | 77 | 142 | 4.0 | 9.0 | 0.00 | 0.00 | 0.00 | 87 | 1015.7 |
| 20260906114503 | 76 | 100 | 7.0 | 9.0 | 0.00 | 0.00 | 0.00 | 87 | 1012.8 |
| 20260906114240 | 77 | 100 | 6.0 | 9.0 | 0.00 | 0.00 | 0.00 | 87 | 1015.6 |
| 20260906113750 | 77 | 82 | 5.0 | 9.0 | 0.00 | 0.00 | 0.00 | 87 | 1015.6 |
| 20260906113240 | 77 | 107 | 6.0 | 9.0 | 0.00 | 0.00 | 0.00 | 87 | 1015.6 |
| 20260906113047 | 77 | 126 | 5.0 | 8.0 | 0.00 | 0.00 | 0.00 | 87 | 1012.7 |
| 20260906112808 | 77 | 108 | 4.0 | 8.0 | 0.00 | 0.00 | 0.00 | 87 | 1015.6 |
| 20260906112230 | 77 | 119 | 4.0 | 8.0 | 0.00 | 0.00 | 0.00 | 87 | 1015.7 |
| 20260906111807 | 77 | 105 | 5.0 | 7.0 | 0.00 | 0.00 | 0.00 | 87 | 1015.7 |
| 20260906111605 | 77 | 113 | 4.0 | 7.0 | 0.00 | 0.00 | 0.00 | 87 | 1012.8 |
| 20260906111318 | 77 | 121 | 4.0 | 7.0 | 0.00 | 0.00 | 0.00 | 87 | 1015.8 |
| 20260906110834 | 77 | 134 | 3.0 | 7.0 | 0.00 | 0.00 | 0.00 | 87 | 1015.9 |
| 20260906110229 | 77 | 109 | 4.0 | 9.0 | 0.00 | 0.00 | 0.00 | 87 | 1015.9 |
| 20260906110014 | 77 | 131 | 3.0 | 9.0 | 0.00 | 0.00 | 0.00 | 87 | 1013.0 |
| 20260906105801 | 77 | 126 | 6.0 | 9.0 | 0.00 | 0.00 | 0.00 | 86 | 1015.9 |
| 20260906105247 | 77 | 144 | 3.0 | 7.0 | 0.00 | 0.00 | 0.00 | 86 | 1015.9 |
| 20260906104736 | 77 | 153 | 3.0 | 8.0 | 0.00 | 0.00 | 0.00 | 86 | 1015.8 |
| 20260906104533 | 77 | 119 | 4.0 | 8.0 | 0.00 | 0.00 | 0.00 | 86 | 1012.8 |
| 20260906104248 | 77 | 117 | 4.0 | 8.0 | 0.00 | 0.00 | 0.00 | 86 | 1015.6 |
| 20260906103738 | 77 | 124 | 3.0 | 8.0 | 0.00 | 0.00 | 0.00 | 86 | 1015.6 |
| 20260906103245 | 77 | 112 | 4.0 | 9.0 | 0.00 | 0.00 | 0.00 | 86 | 1015.4 |
| 20260906103058 | 77 | 128 | 4.0 | 9.0 | 0.00 | 0.00 | 0.00 | 86 | 1012.5 |
| 20260906102729 | 77 | 94 | 5.0 | 9.0 | 0.00 | 0.00 | 0.00 | 86 | 1015.3 |
| 20260906102300 | 77 | 133 | 5.0 | 9.0 | 0.00 | 0.00 | 0.00 | 86 | 1015.3 |
| 20260906101810 | 78 | 134 | 6.0 | 9.0 | 0.00 | 0.00 | 0.00 | 86 | 1015.3 |
| 20260906101520 | 77 | 126 | 4.0 | 11.0 | 0.00 | 0.00 | 0.00 | 86 | 1012.4 |
| 20260906101233 | 78 | 121 | 6.0 | 11.0 | 0.00 | 0.00 | 0.00 | 86 | 1015.3 |
| 20260906100742 | 78 | 111 | 7.0 | 11.0 | 0.00 | 0.00 | 0.00 | 86 | 1015.4 |
| 20260906100224 | 78 | 107 | 7.0 | 10.0 | 0.00 | 0.00 | 0.00 | 86 | 1015.3 |
| 20260906100018 | 77 | 115 | 6.0 | 10.0 | 0.00 | 0.00 | 0.00 | 86 | 1012.5 |
| 20260906095732 | 78 | 105 | 7.0 | 10.0 | 0.00 | 0.00 | 0.00 | 86 | 1015.3 |
| 20260906095245 | 78 | 95 | 5.0 | 10.0 | 0.00 | 0.00 | 0.00 | 85 | 1015.3 |
| 20260906094729 | 78 | 108 | 6.0 | 9.0 | 0.00 | 0.00 | 0.00 | 85 | 1015.3 |
| 20260906094536 | 77 | 125 | 5.0 | 8.0 | 0.00 | 0.00 | 0.00 | 85 | 1012.4 |
| 20260906094241 | 78 | 100 | 4.0 | 8.0 | 0.00 | 0.00 | 0.00 | 85 | 1015.3 |
| 20260906093749 | 78 | 108 | 5.0 | 7.0 | 0.00 | 0.00 | 0.00 | 85 | 1015.3 |
| 20260906093231 | 78 | 119 | 4.0 | 7.0 | 0.00 | 0.00 | 0.00 | 84 | 1015.3 |
| 20260906093036 | 77 | 116 | 3.0 | 6.0 | 0.00 | 0.00 | 0.00 | 84 | 1012.4 |
| 20260906092744 | 78 | 127 | 3.0 | 6.0 | 0.00 | 0.00 | 0.00 | 84 | 1015.3 |
| 20260906092227 | 78 | 12 | 3.0 | 6.0 | 0.00 | 0.00 | 0.00 | 84 | 1015.4 |
| 20260906091734 | 78 | 136 | 3.0 | 4.0 | 0.00 | 0.00 | 0.00 | 84 | 1015.4 |
| 20260906091510 | 77 | 131 | 2.0 | 4.0 | 0.00 | 0.00 | 0.00 | 84 | 1012.4 |
| 20260906091247 | 78 | 118 | 3.0 | 6.0 | 0.00 | 0.00 | 0.00 | 84 | 1015.3 |
| 20260906090735 | 78 | 130 | 3.0 | 7.0 | 0.00 | 0.00 | 0.00 | 84 | 1015.3 |
| 20260906090246 | 78 | 107 | 4.0 | 7.0 | 0.00 | 0.00 | 0.00 | 84 | 1015.3 |
| 20260906090054 | 78 | 112 | 4.0 | 7.0 | 0.00 | 0.00 | 0.00 | 84 | 1012.4 |
| 20260906085730 | 78 | 109 | 3.0 | 6.0 | 0.00 | 0.00 | 0.00 | 83 | 1015.4 |
| 20260906085300 | 78 | 107 | 3.0 | 6.0 | 0.00 | 0.00 | 0.00 | 83 | 1015.4 |
| 20260906084807 | 78 | 107 | 3.0 | 6.0 | 0.00 | 0.00 | 0.00 | 83 | 1015.4 |
| 20260906084600 | 78 | 96 | 3.0 | 6.0 | 0.00 | 0.00 | 0.00 | 83 | 1012.5 |
| 20260906084503 | 78 | 96 | 3.0 | 6.0 | 0.00 | 0.00 | 0.00 | 83 | 1012.5 |
| 20260906084230 | 79 | 77 | 4.0 | 6.0 | 0.00 | 0.00 | 0.00 | 83 | 1015.3 |
| 20260906083800 | 79 | 113 | 4.0 | 6.0 | 0.00 | 0.00 | 0.00 | 82 | 1015.3 |
| 20260906083222 | 79 | 139 | 3.0 | 7.0 | 0.00 | 0.00 | 0.00 | 82 | 1015.2 |
| 20260906083039 | 78 | 134 | 3.0 | 7.0 | 0.00 | 0.00 | 0.00 | 82 | 1012.3 |
| 20260906082732 | 79 | 132 | 3.0 | 6.0 | 0.00 | 0.00 | 0.00 | 82 | 1015.2 |
| 20260906082305 | 79 | 145 | 3.0 | 7.0 | 0.00 | 0.00 | 0.00 | 82 | 1015.1 |
| 20260906081724 | 79 | 118 | 3.0 | 7.0 | 0.00 | 0.00 | 0.00 | 82 | 1015.1 |
| 20260906081519 | 79 | 131 | 3.0 | 7.0 | 0.00 | 0.00 | 0.00 | 82 | 1012.3 |
| 20260906081233 | 79 | 122 | 4.0 | 8.0 | 0.00 | 0.00 | 0.00 | 82 | 1015.2 |
| 20260906080742 | 79 | 138 | 4.0 | 8.0 | 0.00 | 0.00 | 0.00 | 82 | 1015.2 |
| 20260906080225 | 79 | 148 | 5.0 | 9.0 | 0.00 | 0.00 | 0.00 | 82 | 1015.2 |
| 20260906080028 | 79 | 142 | 5.0 | 9.0 | 0.00 | 0.00 | 0.00 | 82 | 1012.1 |
| 20260906075736 | 79 | 134 | 6.0 | 10.0 | 0.00 | 0.00 | 0.00 | 82 | 1015.0 |
| 20260906075248 | 79 | 145 | 6.0 | 10.0 | 0.00 | 0.00 | 0.00 | 82 | 1014.9 |
| 20260906074732 | 80 | 147 | 7.0 | 12.0 | 0.00 | 0.00 | 0.00 | 81 | 1014.9 |
| 20260906074518 | 79 | 139 | 6.0 | 12.0 | 0.00 | 0.00 | 0.00 | 81 | 1012.1 |
| 20260906074223 | 80 | 141 | 9.0 | 12.0 | 0.00 | 0.00 | 0.00 | 81 | 1014.9 |
| 20260906073730 | 80 | 140 | 7.0 | 12.0 | 0.00 | 0.00 | 0.00 | 81 | 1015.0 |
| 20260906073241 | 80 | 114 | 6.0 | 11.0 | 0.00 | 0.00 | 0.00 | 81 | 1015.0 |
| 20260906073054 | 79 | 136 | 5.0 | 11.0 | 0.00 | 0.00 | 0.00 | 81 | 1012.2 |
| 20260906072722 | 80 | 132 | 7.0 | 11.0 | 0.00 | 0.00 | 0.00 | 81 | 1015.1 |
| 20260906072233 | 80 | 130 | 7.0 | 10.0 | 0.00 | 0.00 | 0.00 | 81 | 1015.1 |
| 20260906071745 | 80 | 119 | 5.0 | 11.0 | 0.00 | 0.00 | 0.00 | 81 | 1015.1 |
| 20260906071559 | 80 | 140 | 5.0 | 11.0 | 0.00 | 0.00 | 0.00 | 81 | 1012.2 |
| 20260906071230 | 80 | 132 | 8.0 | 11.0 | 0.00 | 0.00 | 0.00 | 81 | 1015.2 |
| 20260906070739 | 80 | 148 | 7.0 | 11.0 | 0.00 | 0.00 | 0.00 | 81 | 1015.2 |
| 20260906070249 | 80 | 145 | 6.0 | 12.0 | 0.00 | 0.00 | 0.00 | 80 | 1015.2 |
| 20260906070053 | 80 | 129 | 6.0 | 14.0 | 0.00 | 0.00 | 0.00 | 80 | 1012.3 |
| 20260906065727 | 80 | 136 | 8.0 | 14.0 | 0.00 | 0.00 | 0.00 | 80 | 1015.2 |
| 20260906065238 | 80 | 126 | 9.0 | 14.0 | 0.00 | 0.00 | 0.00 | 80 | 1015.3 |
| 20260906064722 | 80 | 139 | 7.0 | 12.0 | 0.00 | 0.00 | 0.00 | 80 | 1015.3 |
| 20260906064557 | 80 | 117 | 6.0 | 12.0 | 0.00 | 0.00 | 0.00 | 80 | 1012.5 |
| 20260906064235 | 80 | 105 | 7.0 | 12.0 | 0.00 | 0.00 | 0.00 | 80 | 1015.4 |
| 20260906063745 | 80 | 136 | 7.0 | 12.0 | 0.00 | 0.00 | 0.00 | 80 | 1015.5 |
| 20260906063228 | 81 | 154 | 7.0 | 11.0 | 0.00 | 0.00 | 0.00 | 80 | 1015.5 |
| 20260906063008 | 80 | 121 | 6.0 | 11.0 | 0.00 | 0.00 | 0.00 | 80 | 1012.6 |
| 20260906062738 | 81 | 134 | 8.0 | 11.0 | 0.00 | 0.00 | 0.00 | 80 | 1015.5 |
| 20260906062249 | 81 | 119 | 6.0 | 10.0 | 0.00 | 0.00 | 0.00 | 80 | 1015.5 |
| 20260906061727 | 81 | 128 | 6.0 | 10.0 | 0.00 | 0.00 | 0.00 | 80 | 1015.5 |
| 20260906061507 | 80 | 157 | 5.0 | 10.0 | 0.00 | 0.00 | 0.00 | 80 | 1012.6 |
| 20260906061259 | 81 | 139 | 6.0 | 10.0 | 0.00 | 0.00 | 0.00 | 79 | 1015.5 |
| 20260906060749 | 81 | 119 | 6.0 | 11.0 | 0.00 | 0.00 | 0.00 | 79 | 1015.4 |
| 20260906060230 | 81 | 121 | 7.0 | 11.0 | 0.00 | 0.00 | 0.00 | 79 | 1015.5 |
| 20260906060042 | 81 | 128 | 7.0 | 13.0 | 0.00 | 0.00 | 0.00 | 79 | 1012.6 |
| 20260906055739 | 81 | 138 | 7.0 | 13.0 | 0.00 | 0.00 | 0.00 | 79 | 1015.4 |
| 20260906055222 | 81 | 107 | 6.0 | 13.0 | 0.00 | 0.00 | 0.00 | 79 | 1015.4 |
| 20260906054753 | 81 | 128 | 8.0 | 13.0 | 0.00 | 0.00 | 0.00 | 79 | 1015.5 |
| 20260906054526 | 81 | 123 | 7.0 | 13.0 | 0.00 | 0.00 | 0.00 | 79 | 1012.5 |
| 20260906054242 | 81 | 88 | 9.0 | 13.0 | 0.00 | 0.00 | 0.00 | 79 | 1015.3 |
| 20260906053724 | 81 | 123 | 9.0 | 13.0 | 0.00 | 0.00 | 0.00 | 79 | 1015.4 |
| 20260906053234 | 82 | 119 | 9.0 | 13.0 | 0.00 | 0.00 | 0.00 | 79 | 1015.4 |
| 20260906053031 | 81 | 110 | 8.0 | 13.0 | 0.00 | 0.00 | 0.00 | 79 | 1012.5 |
| 20260906052747 | 82 | 126 | 8.0 | 11.0 | 0.00 | 0.00 | 0.00 | 79 | 1015.4 |
| 20260906052231 | 82 | 103 | 8.0 | 11.0 | 0.00 | 0.00 | 0.00 | 78 | 1015.5 |
| 20260906051744 | 82 | 105 | 7.0 | 10.0 | 0.00 | 0.00 | 0.00 | 78 | 1015.5 |
| 20260906051525 | 82 | 105 | 8.0 | 10.0 | 0.00 | 0.00 | 0.00 | 78 | 1012.6 |
| 20260906051227 | 82 | 109 | 8.0 | 10.0 | 0.00 | 0.00 | 0.00 | 78 | 1015.5 |
| 20260906050739 | 82 | 121 | 7.0 | 10.0 | 0.00 | 0.00 | 0.00 | 78 | 1015.5 |
| 20260906050309 | 82 | 111 | 7.0 | 10.0 | 0.00 | 0.00 | 0.00 | 78 | 1015.5 |
| 20260906050051 | 82 | 115 | 6.0 | 10.0 | 0.00 | 0.00 | 0.00 | 78 | 1012.6 |
| 20260906045730 | 82 | 115 | 6.0 | 10.0 | 0.00 | 0.00 | 0.00 | 77 | 1015.5 |
| 20260906045242 | 83 | 108 | 7.0 | 11.0 | 0.00 | 0.00 | 0.00 | 77 | 1015.5 |
| 20260906044727 | 83 | 111 | 6.0 | 11.0 | 0.00 | 0.00 | 0.00 | 77 | 1015.5 |
| 20260906044557 | 82 | 80 | 7.0 | 11.0 | 0.00 | 0.00 | 0.00 | 77 | 1012.5 |
| 20260906044238 | 83 | 88 | 8.0 | 11.0 | 0.00 | 0.00 | 0.00 | 77 | 1015.4 |
| 20260906043809 | 83 | 96 | 8.0 | 12.0 | 0.00 | 0.00 | 0.00 | 77 | 1015.4 |
| 20260906043230 | 83 | 95 | 8.0 | 11.0 | 0.00 | 0.00 | 0.00 | 77 | 1015.4 |
| 20260906043039 | 83 | 99 | 8.0 | 11.0 | 0.00 | 0.00 | 0.00 | 76 | 1012.6 |
| 20260906042737 | 83 | 101 | 8.0 | 10.0 | 0.00 | 0.00 | 0.00 | 76 | 1015.5 |
| 20260906042221 | 83 | 97 | 6.0 | 10.0 | 0.00 | 0.00 | 0.00 | 76 | 1015.5 |
| 20260906041735 | 84 | 115 | 7.0 | 10.0 | 0.00 | 0.00 | 0.00 | 76 | 1015.5 |
| 20260906041554 | 83 | 116 | 7.0 | 10.0 | 0.00 | 0.00 | 0.00 | 76 | 1012.5 |
| 20260906041248 | 84 | 103 | 7.0 | 11.0 | 0.00 | 0.00 | 0.00 | 76 | 1015.5 |
| 20260906040759 | 84 | 113 | 7.0 | 11.0 | 0.00 | 0.00 | 0.00 | 75 | 1015.5 |
| 20260906040250 | 84 | 104 | 9.0 | 11.0 | 0.00 | 0.00 | 0.00 | 75 | 1015.5 |
| 20260906040022 | 83 | 91 | 7.0 | 12.0 | 0.00 | 0.00 | 0.00 | 75 | 1012.5 |
| 20260906035731 | 84 | 85 | 8.0 | 12.0 | 0.00 | 0.00 | 0.00 | 75 | 1015.5 |
| 20260906035240 | 84 | 95 | 8.0 | 12.0 | 0.00 | 0.00 | 0.00 | 75 | 1015.4 |
| 20260906034725 | 84 | 89 | 8.0 | 12.0 | 0.00 | 0.00 | 0.00 | 75 | 1015.5 |
| 20260906034532 | 84 | 110 | 7.0 | 11.0 | 0.00 | 0.00 | 0.00 | 75 | 1012.5 |
| 20260906034238 | 84 | 99 | 8.0 | 11.0 | 0.00 | 0.00 | 0.00 | 75 | 1015.4 |
| 20260906033752 | 84 | 101 | 8.0 | 12.0 | 0.00 | 0.00 | 0.00 | 75 | 1015.4 |
| 20260906033244 | 84 | 93 | 8.0 | 12.0 | 0.00 | 0.00 | 0.00 | 75 | 1015.3 |
| 20260906033055 | 84 | 82 | 7.0 | 12.0 | 0.00 | 0.00 | 0.00 | 75 | 1012.4 |
| 20260906032727 | 85 | 94 | 7.0 | 10.0 | 0.00 | 0.00 | 0.00 | 75 | 1015.3 |
| 20260906032240 | 85 | 98 | 7.0 | 10.0 | 0.00 | 0.00 | 0.00 | 75 | 1015.3 |
| 20260906031724 | 85 | 69 | 7.0 | 13.0 | 0.00 | 0.00 | 0.00 | 74 | 1015.2 |
| 20260906031505 | 84 | 111 | 8.0 | 13.0 | 0.00 | 0.00 | 0.00 | 74 | 1012.3 |
| 20260906031236 | 85 | 88 | 8.0 | 12.0 | 0.00 | 0.00 | 0.00 | 74 | 1015.1 |
| 20260906030745 | 85 | 90 | 7.0 | 11.0 | 0.00 | 0.00 | 0.00 | 74 | 1015.0 |
| 20260906030229 | 85 | 93 | 8.0 | 13.0 | 0.00 | 0.00 | 0.00 | 74 | 1014.8 |
| 20260906030015 | 85 | 107 | 8.0 | 13.0 | 0.00 | 0.00 | 0.00 | 74 | 1011.8 |
| 20260906025742 | 85 | 100 | 9.0 | 15.0 | 0.00 | 0.00 | 0.00 | 74 | 1014.7 |
| 20260906025227 | 85 | 117 | 7.0 | 15.0 | 0.00 | 0.00 | 0.00 | 74 | 1014.7 |
| 20260906024740 | 85 | 80 | 8.0 | 11.0 | 0.00 | 0.00 | 0.00 | 74 | 1014.7 |
| 20260906024522 | 85 | 105 | 7.0 | 12.0 | 0.00 | 0.00 | 0.00 | 74 | 1011.7 |
| 20260906024255 | 85 | 74 | 8.0 | 12.0 | 0.00 | 0.00 | 0.00 | 74 | 1014.7 |
| 20260906023741 | 86 | 90 | 8.0 | 12.0 | 0.00 | 0.00 | 0.00 | 74 | 1014.5 |
| 20260906023226 | 86 | 94 | 7.0 | 11.0 | 0.00 | 0.00 | 0.00 | 74 | 1014.6 |
| 20260906023006 | 85 | 92 | 8.0 | 11.0 | 0.00 | 0.00 | 0.00 | 74 | 1011.6 |
| 20260906022738 | 86 | 79 | 7.0 | 11.0 | 0.00 | 0.00 | 0.00 | 74 | 1014.6 |
| 20260906022222 | 86 | 78 | 6.0 | 10.0 | 0.00 | 0.00 | 0.00 | 73 | 1014.6 |
| 20260906021735 | 86 | 57 | 7.0 | 12.0 | 0.00 | 0.00 | 0.00 | 73 | 1014.4 |
| 20260906021510 | 86 | 82 | 8.0 | 12.0 | 0.00 | 0.00 | 0.00 | 73 | 1011.4 |
| 20260906021248 | 86 | 77 | 8.0 | 12.0 | 0.00 | 0.00 | 0.00 | 73 | 1014.4 |
| 20260906020728 | 86 | 71 | 7.0 | 11.0 | 0.00 | 0.00 | 0.00 | 72 | 1014.2 |
| 20260906020239 | 87 | 97 | 7.0 | 12.0 | 0.00 | 0.00 | 0.00 | 72 | 1014.0 |
| 20260906020015 | 86 | 80 | 7.0 | 12.0 | 0.00 | 0.00 | 0.00 | 72 | 1011.0 |
| 20260906015747 | 87 | 105 | 7.0 | 12.0 | 0.00 | 0.00 | 0.00 | 72 | 1013.9 |
| 20260906015238 | 87 | 88 | 6.0 | 12.0 | 0.00 | 0.00 | 0.00 | 72 | 1013.9 |
| 20260906014721 | 87 | 93 | 8.0 | 12.0 | 0.00 | 0.00 | 0.00 | 71 | 1014.0 |
| 20260906014609 | 87 | 92 | 7.0 | 12.0 | 0.00 | 0.00 | 0.00 | 71 | 1010.8 |
| 20260906014256 | 87 | 91 | 8.0 | 12.0 | 0.00 | 0.00 | 0.00 | 71 | 1013.9 |
| 20260906013747 | 87 | 76 | 7.0 | 11.0 | 0.00 | 0.00 | 0.00 | 71 | 1013.8 |
| 20260906013226 | 88 | 96 | 7.0 | 11.0 | 0.00 | 0.00 | 0.00 | 71 | 1013.8 |
| 20260906013043 | 87 | 82 | 6.0 | 11.0 | 0.00 | 0.00 | 0.00 | 71 | 1010.7 |
| 20260906012737 | 88 | 96 | 5.0 | 11.0 | 0.00 | 0.00 | 0.00 | 71 | 1013.7 |
| 20260906012245 | 88 | 82 | 6.0 | 11.0 | 0.00 | 0.00 | 0.00 | 70 | 1013.7 |
| 20260906011729 | 88 | 67 | 5.0 | 10.0 | 0.00 | 0.00 | 0.00 | 70 | 1013.7 |
| 20260906011542 | 88 | 90 | 6.0 | 10.0 | 0.00 | 0.00 | 0.00 | 70 | 1010.6 |
| 20260906011224 | 89 | 91 | 6.0 | 9.0 | 0.00 | 0.00 | 0.00 | 70 | 1013.5 |
| 20260906010735 | 89 | 64 | 5.0 | 10.0 | 0.00 | 0.00 | 0.00 | 70 | 1013.5 |
| 20260906010248 | 89 | 80 | 6.0 | 10.0 | 0.00 | 0.00 | 0.00 | 69 | 1013.4 |
| 20260906010024 | 89 | 80 | 6.0 | 9.0 | 0.00 | 0.00 | 0.00 | 69 | 1010.4 |
| 20260906005741 | 90 | 68 | 5.0 | 9.0 | 0.00 | 0.00 | 0.00 | 68 | 1013.4 |
| 20260906005256 | 90 | 78 | 6.0 | 10.0 | 0.00 | 0.00 | 0.00 | 67 | 1013.4 |
| 20260906004745 | 90 | 68 | 6.0 | 10.0 | 0.00 | 0.00 | 0.00 | 67 | 1013.4 |
| 20260906004607 | 90 | 97 | 7.0 | 11.0 | 0.00 | 0.00 | 0.00 | 67 | 1010.4 |
| 20260906004509 | 90 | 87 | 7.0 | 11.0 | 0.00 | 0.00 | 0.00 | 67 | 1010.3 |
| 20260906004226 | 90 | 90 | 7.0 | 11.0 | 0.00 | 0.00 | 0.00 | 66 | 1013.3 |
| 20260906003758 | 91 | 112 | 8.0 | 12.0 | 0.00 | 0.00 | 0.00 | 66 | 1013.3 |
| 20260906003221 | 91 | 126 | 8.0 | 12.0 | 0.00 | 0.00 | 0.00 | 65 | 1013.4 |
| 20260906003049 | 91 | 121 | 8.0 | 11.0 | 0.00 | 0.00 | 0.00 | 65 | 1010.3 |
| 20260906002755 | 91 | 91 | 7.0 | 11.0 | 0.00 | 0.00 | 0.00 | 65 | 1013.3 |
| 20260906002228 | 92 | 126 | 6.0 | 12.0 | 0.00 | 0.00 | 0.00 | 64 | 1013.2 |
| 20260906001742 | 92 | 116 | 6.0 | 12.0 | 0.00 | 0.00 | 0.00 | 64 | 1013.2 |
| 20260906001520 | 92 | 118 | 8.0 | 12.0 | 0.00 | 0.00 | 0.00 | 64 | 1010.2 |
| 20260906001227 | 92 | 132 | 8.0 | 11.0 | 0.00 | 0.00 | 0.00 | 64 | 1013.3 |
| 20260906000736 | 93 | 107 | 8.0 | 11.0 | 0.00 | 0.00 | 0.00 | 63 | 1013.3 |
| 20260906000248 | 93 | 113 | 8.0 | 10.0 | 0.00 | 0.00 | 0.00 | 63 | 1013.2 |
| 20260906000007 | 92 | 109 | 7.0 | 10.0 | 0.00 | 0.00 | 0.00 | 63 | 1010.3 |
| 20260905235738 | 93 | 119 | 7.0 | 10.0 | 0.00 | 0.00 | 0.00 | 63 | 1013.3 |
| 20260905235224 | 93 | 133 | 5.0 | 12.0 | 0.00 | 0.00 | 0.00 | 62 | 1013.3 |
| 20260905234737 | 93 | 117 | 6.0 | 12.0 | 0.00 | 0.00 | 0.00 | 62 | 1013.3 |
| 20260905234508 | 93 | 130 | 8.0 | 12.0 | 0.00 | 0.00 | 0.00 | 61 | 1010.3 |
| 20260905234310 | 93 | 111 | 6.0 | 12.0 | 0.00 | 0.00 | 0.00 | 62 | 1013.3 |
| 20260905233733 | 94 | 105 | 7.0 | 12.0 | 0.00 | 0.00 | 0.00 | 62 | 1013.3 |
| 20260905233242 | 94 | 149 | 8.0 | 15.0 | 0.00 | 0.00 | 0.00 | 61 | 1013.2 |
| 20260905233049 | 93 | 99 | 7.0 | 15.0 | 0.00 | 0.00 | 0.00 | 60 | 1010.2 |
| 20260905232727 | 94 | 135 | 10.0 | 15.0 | 0.00 | 0.00 | 0.00 | 60 | 1013.1 |
| 20260905232240 | 94 | 104 | 8.0 | 15.0 | 0.00 | 0.00 | 0.00 | 61 | 1013.2 |
| 20260905231723 | 94 | 134 | 9.0 | 14.0 | 0.00 | 0.00 | 0.00 | 61 | 1013.2 |
| 20260905231556 | 94 | 96 | 9.0 | 14.0 | 0.00 | 0.00 | 0.00 | 60 | 1010.1 |
| 20260905231238 | 94 | 136 | 7.0 | 15.0 | 0.00 | 0.00 | 0.00 | 61 | 1013.2 |
| 20260905230722 | 94 | 132 | 9.0 | 15.0 | 0.00 | 0.00 | 0.00 | 59 | 1013.1 |
| 20260905230237 | 95 | 82 | 10.0 | 15.0 | 0.00 | 0.00 | 0.00 | 59 | 1013.1 |
| 20260905230014 | 94 | 97 | 10.0 | 14.0 | 0.00 | 0.00 | 0.00 | 59 | 1010.1 |
| 20260905225747 | 95 | 130 | 10.0 | 16.0 | 0.00 | 0.00 | 0.00 | 59 | 1013.0 |
| 20260905225230 | 95 | 138 | 10.0 | 16.0 | 0.00 | 0.00 | 0.00 | 59 | 1013.0 |
| 20260905224739 | 95 | 130 | 10.0 | 14.0 | 0.00 | 0.00 | 0.00 | 58 | 1013.0 |
| 20260905224523 | 94 | 147 | 9.0 | 14.0 | 0.00 | 0.00 | 0.00 | 59 | 1009.9 |
| 20260905224224 | 95 | 111 | 10.0 | 16.0 | 0.00 | 0.00 | 0.00 | 58 | 1012.9 |
| 20260905223735 | 95 | 137 | 10.0 | 16.0 | 0.00 | 0.00 | 0.00 | 58 | 1012.9 |
| 20260905223246 | 95 | 155 | 9.0 | 15.0 | 0.00 | 0.00 | 0.00 | 58 | 1012.9 |
| 20260905223058 | 94 | 138 | 9.0 | 15.0 | 0.00 | 0.00 | 0.00 | 59 | 1009.8 |
| 20260905222738 | 95 | 123 | 9.0 | 16.0 | 0.00 | 0.00 | 0.00 | 59 | 1012.8 |
| 20260905222247 | 95 | 114 | 12.0 | 18.0 | 0.00 | 0.00 | 0.00 | 58 | 1012.8 |
| 20260905221754 | 95 | 134 | 14.0 | 18.0 | 0.00 | 0.00 | 0.00 | 58 | 1012.7 |
| 20260905221516 | 94 | 139 | 10.0 | 17.0 | 0.00 | 0.00 | 0.00 | 59 | 1009.7 |
| 20260905221247 | 95 | 88 | 9.0 | 19.0 | 0.00 | 0.00 | 0.00 | 58 | 1012.8 |
| 20260905220731 | 95 | 134 | 10.0 | 19.0 | 0.00 | 0.00 | 0.00 | 57 | 1012.8 |
| 20260905220244 | 95 | 111 | 10.0 | 16.0 | 0.00 | 0.00 | 0.00 | 58 | 1012.8 |
| 20260905220050 | 95 | 137 | 10.0 | 16.0 | 0.00 | 0.00 | 0.00 | 58 | 1009.9 |
| 20260905215757 | 95 | 109 | 12.0 | 16.0 | 0.00 | 0.00 | 0.00 | 57 | 1012.9 |
| 20260905215221 | 95 | 113 | 11.0 | 16.0 | 0.00 | 0.00 | 0.00 | 57 | 1012.9 |
| 20260905214731 | 95 | 143 | 10.0 | 15.0 | 0.00 | 0.00 | 0.00 | 58 | 1012.9 |
| 20260905214531 | 94 | 127 | 10.0 | 15.0 | 0.00 | 0.00 | 0.00 | 57 | 1009.9 |
| 20260905214300 | 95 | 143 | 10.0 | 15.0 | 0.00 | 0.00 | 0.00 | 58 | 1013.0 |
| 20260905213810 | 94 | 133 | 9.0 | 15.0 | 0.00 | 0.00 | 0.00 | 57 | 1013.0 |
| 20260905213233 | 94 | 117 | 10.0 | 16.0 | 0.00 | 0.00 | 0.00 | 57 | 1013.2 |
| 20260905213050 | 94 | 92 | 10.0 | 16.0 | 0.00 | 0.00 | 0.00 | 57 | 1010.3 |
| 20260905212806 | 94 | 105 | 12.0 | 17.0 | 0.00 | 0.00 | 0.00 | 56 | 1013.3 |
| 20260905212227 | 94 | 92 | 8.0 | 17.0 | 0.00 | 0.00 | 0.00 | 57 | 1013.4 |
| 20260905211759 | 94 | 77 | 10.0 | 16.0 | 0.00 | 0.00 | 0.00 | 56 | 1013.5 |
| 20260905211503 | 93 | 119 | 8.0 | 16.0 | 0.00 | 0.00 | 0.00 | 57 | 1010.6 |
| 20260905211247 | 94 | 136 | 10.0 | 16.0 | 0.00 | 0.00 | 0.00 | 57 | 1013.6 |
| 20260905210729 | 94 | 127 | 11.0 | 15.0 | 0.00 | 0.00 | 0.00 | 57 | 1013.6 |
| 20260905210301 | 94 | 78 | 9.0 | 16.0 | 0.00 | 0.00 | 0.00 | 56 | 1013.7 |
| 20260905210043 | 93 | 69 | 8.0 | 16.0 | 0.00 | 0.00 | 0.00 | 56 | 1010.7 |
| 20260905205751 | 94 | 123 | 10.0 | 16.0 | 0.00 | 0.00 | 0.00 | 56 | 1013.9 |
| 20260905205242 | 94 | 104 | 11.0 | 16.0 | 0.00 | 0.00 | 0.00 | 56 | 1014.0 |
| 20260905204733 | 94 | 140 | 9.0 | 17.0 | 0.00 | 0.00 | 0.00 | 56 | 1014.0 |
| 20260905204507 | 93 | 87 | 11.0 | 18.0 | 0.00 | 0.00 | 0.00 | 55 | 1011.0 |
| 20260905204242 | 94 | 101 | 11.0 | 18.0 | 0.00 | 0.00 | 0.00 | 55 | 1014.2 |
| 20260905203724 | 94 | 63 | 12.0 | 18.0 | 0.00 | 0.00 | 0.00 | 56 | 1014.2 |
| 20260905203235 | 94 | 87 | 12.0 | 18.0 | 0.00 | 0.00 | 0.00 | 53 | 1014.4 |
| 20260905203010 | 93 | 101 | 10.0 | 18.0 | 0.00 | 0.00 | 0.00 | 54 | 1011.4 |
| 20260905202746 | 93 | 99 | 11.0 | 17.0 | 0.00 | 0.00 | 0.00 | 55 | 1014.4 |
| 20260905202230 | 93 | 89 | 12.0 | 19.0 | 0.00 | 0.00 | 0.00 | 55 | 1014.7 |
| 20260905201742 | 94 | 92 | 14.0 | 19.0 | 0.00 | 0.00 | 0.00 | 53 | 1014.9 |
| 20260905201554 | 93 | 90 | 13.0 | 19.0 | 0.00 | 0.00 | 0.00 | 54 | 1011.8 |
| 20260905201233 | 94 | 81 | 12.0 | 17.0 | 0.00 | 0.00 | 0.00 | 56 | 1015.0 |
| 20260905200743 | 94 | 53 | 8.0 | 18.0 | 0.00 | 0.00 | 0.00 | 55 | 1015.2 |
| 20260905200222 | 94 | 50 | 12.0 | 17.0 | 0.00 | 0.00 | 0.00 | 57 | 1015.2 |
| 20260905200105 | 94 | 50 | 11.0 | 17.0 | 0.00 | 0.00 | 0.00 | 57 | 1012.1 |
| 20260905195734 | 94 | 59 | 12.0 | 18.0 | 0.00 | 0.00 | 0.00 | 58 | 1015.2 |
| 20260905195247 | 94 | 81 | 9.0 | 18.0 | 0.00 | 0.00 | 0.00 | 58 | 1015.2 |
| 20260905194732 | 93 | 55 | 10.0 | 20.0 | 0.00 | 0.00 | 0.00 | 58 | 1015.2 |
| 20260905194507 | 93 | 87 | 12.0 | 20.0 | 0.00 | 0.00 | 0.00 | 58 | 1012.1 |
| 20260905194245 | 93 | 108 | 14.0 | 20.0 | 0.00 | 0.00 | 0.00 | 58 | 1015.1 |
| 20260905193735 | 93 | 98 | 10.0 | 17.0 | 0.00 | 0.00 | 0.00 | 61 | 1015.3 |
| 20260905193307 | 93 | 112 | 11.0 | 18.0 | 0.00 | 0.00 | 0.00 | 61 | 1015.4 |
| 20260905193029 | 92 | 76 | 9.0 | 18.0 | 0.00 | 0.00 | 0.00 | 61 | 1012.2 |
| 20260905192726 | 93 | 82 | 13.0 | 20.0 | 0.00 | 0.00 | 0.00 | 60 | 1015.4 |
| 20260905192257 | 93 | 88 | 12.0 | 21.0 | 0.00 | 0.00 | 0.00 | 61 | 1015.5 |
| 20260905191720 | 92 | 39 | 13.0 | 21.0 | 0.00 | 0.00 | 0.00 | 61 | 1015.5 |
| 20260905191520 | 92 | 92 | 12.0 | 21.0 | 0.00 | 0.00 | 0.00 | 62 | 1012.5 |
| 20260905191234 | 92 | 48 | 13.0 | 21.0 | 0.00 | 0.00 | 0.00 | 61 | 1015.7 |
| 20260905190744 | 92 | 108 | 15.0 | 21.0 | 0.00 | 0.00 | 0.00 | 61 | 1015.8 |
| 20260905190228 | 92 | 105 | 13.0 | 20.0 | 0.00 | 0.00 | 0.00 | 61 | 1015.9 |
| 20260905190034 | 92 | 51 | 12.0 | 21.0 | 0.00 | 0.00 | 0.00 | 61 | 1012.9 |
| 20260905185739 | 92 | 89 | 13.0 | 22.0 | 0.00 | 0.00 | 0.00 | 62 | 1016.1 |
| 20260905185223 | 92 | 39 | 14.0 | 22.0 | 0.00 | 0.00 | 0.00 | 60 | 1016.2 |
| 20260905184730 | 92 | 95 | 14.0 | 22.0 | 0.00 | 0.00 | 0.00 | 61 | 1016.4 |
| 20260905184528 | 91 | 56 | 12.0 | 20.0 | 0.00 | 0.00 | 0.00 | 62 | 1013.2 |
| 20260905184241 | 91 | 70 | 13.0 | 20.0 | 0.00 | 0.00 | 0.00 | 62 | 1016.4 |
| 20260905183723 | 91 | 75 | 15.0 | 22.0 | 0.00 | 0.00 | 0.00 | 63 | 1016.6 |
| 20260905183235 | 91 | 33 | 13.0 | 23.0 | 0.00 | 0.00 | 0.00 | 63 | 1016.7 |
| 20260905183034 | 91 | 17 | 13.0 | 23.0 | 0.00 | 0.00 | 0.00 | 63 | 1013.6 |
| 20260905182748 | 91 | 5 | 13.0 | 23.0 | 0.00 | 0.00 | 0.00 | 62 | 1016.8 |
| 20260905182230 | 91 | 27 | 16.0 | 25.0 | 0.00 | 0.00 | 0.00 | 62 | 1016.6 |
| 20260905181742 | 92 | 40 | 15.0 | 25.0 | 0.00 | 0.00 | 0.00 | 62 | 1016.7 |
| 20260905181536 | 91 | 22 | 13.0 | 25.0 | 0.00 | 0.00 | 0.00 | 61 | 1013.6 |
| 20260905181227 | 92 | 30 | 13.0 | 25.0 | 0.00 | 0.00 | 0.00 | 61 | 1016.6 |
| 20260905180733 | 92 | 44 | 11.0 | 20.0 | 0.00 | 0.00 | 0.00 | 63 | 1016.5 |
| 20260905180247 | 92 | 13 | 13.0 | 23.0 | 0.00 | 0.00 | 0.00 | 62 | 1016.4 |
| 20260905180038 | 92 | 43 | 14.0 | 23.0 | 0.00 | 0.00 | 0.00 | 62 | 1013.3 |
| 20260905175730 | 93 | 360 | 15.0 | 23.0 | 0.00 | 0.00 | 0.00 | 60 | 1016.5 |
| 20260905175241 | 93 | 38 | 13.0 | 23.0 | 0.00 | 0.00 | 0.00 | 60 | 1016.4 |
| 20260905174726 | 93 | 5 | 10.0 | 19.0 | 0.00 | 0.00 | 0.00 | 61 | 1016.4 |
| 20260905174543 | 92 | 50 | 9.0 | 19.0 | 0.00 | 0.00 | 0.00 | 61 | 1013.3 |